Time,TemperatureF,DewpointF,PressureIn,WindDirection,WindDirectionDegrees,WindSpeedMPH,WindSpeedGustMPH,Humidity,HourlyPrecipIn,Conditions,Clouds,dailyrainin,SoftwareType,DateUTC
2013-02-14 00:00:00,27.5,25.0,30.47,NE,42,0.0,0.0,90,0.00,,---,0.00,VWS V14.01,2013-02-14 08:00:00,
2013-02-14 00:04:00,29.6,27.0,30.47,NE,37,4.0,6.0,90,0.00,,---,0.00,VWS V14.01,2013-02-14 08:04:00,
2013-02-14 00:09:00,30.1,27.5,30.46,NE,37,0.0,6.0,90,0.00,,---,0.00,VWS V14.01,2013-02-14 08:09:00,
2013-02-14 00:14:00,30.1,27.5,30.47,NE,42,0.0,6.0,90,0.00,,---,0.00,VWS V14.01,2013-02-14 08:14:00,
2013-02-14 00:15:00,27.5,25.2,30.48,NE,42,0.0,0.0,91,0.00,,---,0.00,VWS V14.01,2013-02-14 08:15:00,
2013-02-14 00:19:00,30.2,27.6,30.47,NE,41,0.0,0.0,90,0.00,,---,0.00,VWS V14.01,2013-02-14 08:19:00,
2013-02-14 00:24:00,30.3,27.7,30.47,NE,42,3.0,4.0,90,0.00,,---,0.00,VWS V14.01,2013-02-14 08:24:00,
2013-02-14 00:29:00,30.6,28.0,30.47,NE,42,2.0,4.0,90,0.00,,---,0.00,VWS V14.01,2013-02-14 08:29:00,
2013-02-14 00:30:00,28.8,26.8,30.48,NE,42,0.0,0.0,92,0.00,,---,0.00,VWS V14.01,2013-02-14 08:30:00,
2013-02-14 00:34:00,30.7,27.9,30.47,NE,41,0.0,0.0,89,0.00,,---,0.00,VWS V14.01,2013-02-14 08:34:00,
2013-02-14 00:39:00,29.9,26.5,30.47,NE,41,0.0,0.0,87,0.00,,---,0.00,VWS V14.01,2013-02-14 08:39:00,
2013-02-14 00:44:00,29.1,26.0,30.47,NE,42,0.0,0.0,88,0.00,,---,0.00,VWS V14.01,2013-02-14 08:44:00,
2013-02-14 00:45:00,28.8,26.5,30.48,NE,41,0.0,0.0,91,0.00,,---,0.00,VWS V14.01,2013-02-14 08:45:00,
2013-02-14 00:49:00,28.1,25.0,30.47,NE,42,0.0,0.0,88,0.00,,---,0.00,VWS V14.01,2013-02-14 08:49:00,
2013-02-14 00:54:00,27.8,25.0,30.47,NE,42,0.0,0.0,89,0.00,,---,0.00,VWS V14.01,2013-02-14 08:54:00,
2013-02-14 00:59:00,27.5,25.0,30.47,NE,42,0.0,0.0,90,0.00,,---,0.00,VWS V14.01,2013-02-14 08:59:00,
2013-02-14 01:00:00,28.8,26.5,30.48,NE,42,0.0,0.0,91,0.00,,---,0.00,VWS V14.01,2013-02-14 09:00:00,
2013-02-14 01:04:00,27.4,24.9,30.47,NE,42,0.0,0.0,90,0.00,,---,0.00,VWS V14.01,2013-02-14 09:04:00,
2013-02-14 01:09:00,27.3,25.0,30.47,NE,42,0.0,0.0,91,0.00,,---,0.00,VWS V14.01,2013-02-14 09:09:00,
2013-02-14 01:14:00,27.4,25.1,30.48,NE,42,0.0,0.0,91,0.00,,---,0.00,VWS V14.01,2013-02-14 09:14:00,
2013-02-14 01:15:00,27.1,24.6,30.49,NE,42,0.0,2.0,90,0.00,,---,0.00,VWS V14.01,2013-02-14 09:15:00,
2013-02-14 01:19:00,27.8,25.8,30.48,NE,42,0.0,0.0,92,0.00,,---,0.00,VWS V14.01,2013-02-14 09:19:00,
2013-02-14 01:24:00,28.3,26.3,30.48,NE,42,0.0,0.0,92,0.00,,---,0.00,VWS V14.01,2013-02-14 09:24:00,
2013-02-14 01:29:00,28.7,26.7,30.48,NE,42,0.0,0.0,92,0.00,,---,0.00,VWS V14.01,2013-02-14 09:29:00,
2013-02-14 01:30:00,27.2,25.2,30.49,NE,42,0.0,0.0,92,0.00,,---,0.00,VWS V14.01,2013-02-14 09:30:00,
2013-02-14 01:34:00,29.0,27.0,30.48,NE,41,0.0,0.0,92,0.00,,---,0.00,VWS V14.01,2013-02-14 09:34:00,
2013-02-14 01:39:00,28.8,26.5,30.48,NE,42,0.0,0.0,91,0.00,,---,0.00,VWS V14.01,2013-02-14 09:39:00,
2013-02-14 01:44:00,28.7,26.4,30.48,NE,42,0.0,0.0,91,0.00,,---,0.00,VWS V14.01,2013-02-14 09:44:00,
2013-02-14 01:45:00,26.6,26.4,30.49,NE,42,0.0,0.0,99,0.00,,---,0.00,VWS V14.01,2013-02-14 09:45:00,
2013-02-14 01:49:00,29.1,27.1,30.48,NE,42,0.0,0.0,92,0.00,,---,0.00,VWS V14.01,2013-02-14 09:49:00,
2013-02-14 01:54:00,29.2,26.9,30.48,NE,42,0.0,0.0,91,0.00,,---,0.00,VWS V14.01,2013-02-14 09:54:00,
2013-02-14 01:59:00,28.9,26.6,30.48,NE,41,0.0,0.0,91,0.00,,---,0.00,VWS V14.01,2013-02-14 09:59:00,
2013-02-14 02:00:00,25.5,23.5,30.49,NE,42,0.0,0.0,92,0.00,,---,0.00,VWS V14.01,2013-02-14 10:00:00,
2013-02-14 02:04:00,28.3,25.8,30.48,NE,41,0.0,0.0,90,0.00,,---,0.00,VWS V14.01,2013-02-14 10:04:00,
2013-02-14 02:09:00,27.9,25.4,30.49,NE,42,0.0,0.0,90,0.00,,---,0.00,VWS V14.01,2013-02-14 10:09:00,
2013-02-14 02:14:00,27.2,24.7,30.49,NE,41,0.0,2.0,90,0.00,,---,0.00,VWS V14.01,2013-02-14 10:14:00,
2013-02-14 02:15:00,26.3,24.6,30.49,NE,41,0.0,0.0,93,0.00,,---,0.00,VWS V14.01,2013-02-14 10:15:00,
2013-02-14 02:19:00,26.9,24.4,30.49,NE,42,0.0,0.0,90,0.00,,---,0.00,VWS V14.01,2013-02-14 10:19:00,
2013-02-14 02:24:00,27.1,24.8,30.49,NE,42,0.0,0.0,91,0.00,,---,0.00,VWS V14.01,2013-02-14 10:24:00,
2013-02-14 02:29:00,27.2,25.2,30.49,NE,41,0.0,0.0,92,0.00,,---,0.00,VWS V14.01,2013-02-14 10:29:00,
2013-02-14 02:30:00,25.8,23.8,30.49,NE,42,0.0,0.0,92,0.00,,---,0.00,VWS V14.01,2013-02-14 10:30:00,
2013-02-14 02:34:00,27.1,24.8,30.49,NE,42,0.0,0.0,91,0.00,,---,0.00,VWS V14.01,2013-02-14 10:34:00,
2013-02-14 02:39:00,26.7,24.4,30.49,NE,42,0.0,0.0,91,0.00,,---,0.00,VWS V14.01,2013-02-14 10:39:00,
2013-02-14 02:44:00,26.6,26.4,30.49,NE,41,0.0,0.0,99,0.00,,---,0.00,VWS V14.01,2013-02-14 10:44:00,
2013-02-14 02:45:00,24.7,23.0,30.50,NE,42,0.0,0.0,93,0.00,,---,0.00,VWS V14.01,2013-02-14 10:45:00,
2013-02-14 02:49:00,26.6,26.6,30.49,NE,42,0.0,0.0,100,0.00,,---,0.00,VWS V14.01,2013-02-14 10:49:00,
2013-02-14 02:54:00,26.0,23.7,30.49,NE,41,0.0,0.0,91,0.00,,---,0.00,VWS V14.01,2013-02-14 10:54:00,
2013-02-14 02:59:00,25.4,23.4,30.49,NE,42,0.0,0.0,92,0.00,,---,0.00,VWS V14.01,2013-02-14 10:59:00,
2013-02-14 03:00:00,24.8,23.1,30.50,NE,41,0.0,0.0,93,0.00,,---,0.00,VWS V14.01,2013-02-14 11:00:00,
2013-02-14 03:04:00,25.7,23.7,30.49,NE,42,0.0,0.0,92,0.00,,---,0.00,VWS V14.01,2013-02-14 11:04:00,
2013-02-14 03:09:00,26.1,24.4,30.49,NE,42,0.0,0.0,93,0.00,,---,0.00,VWS V14.01,2013-02-14 11:09:00,
2013-02-14 03:14:00,26.3,24.6,30.49,NE,41,0.0,0.0,93,0.00,,---,0.00,VWS V14.01,2013-02-14 11:14:00,
2013-02-14 03:15:00,25.5,23.8,30.50,NE,41,0.0,0.0,93,0.00,,---,0.00,VWS V14.01,2013-02-14 11:15:00,
2013-02-14 03:19:00,26.3,24.6,30.49,NE,42,0.0,0.0,93,0.00,,---,0.00,VWS V14.01,2013-02-14 11:19:00,
2013-02-14 03:24:00,26.2,24.5,30.49,NE,42,0.0,0.0,93,0.00,,---,0.00,VWS V14.01,2013-02-14 11:24:00,
2013-02-14 03:29:00,25.9,24.2,30.49,NE,42,0.0,0.0,93,0.00,,---,0.00,VWS V14.01,2013-02-14 11:29:00,
2013-02-14 03:30:00,25.6,23.9,30.51,NE,42,0.0,0.0,93,0.00,,---,0.00,VWS V14.01,2013-02-14 11:30:00,
2013-02-14 03:34:00,25.4,23.4,30.49,NE,42,0.0,0.0,92,0.00,,---,0.00,VWS V14.01,2013-02-14 11:34:00,
2013-02-14 03:39:00,24.9,22.9,30.49,NE,42,0.0,0.0,92,0.00,,---,0.00,VWS V14.01,2013-02-14 11:39:00,
2013-02-14 03:44:00,24.7,22.7,30.50,NE,42,0.0,0.0,92,0.00,,---,0.00,VWS V14.01,2013-02-14 11:44:00,
2013-02-14 03:45:00,26.4,24.9,30.51,ENE,57,5.0,5.0,94,0.00,,---,0.00,VWS V14.01,2013-02-14 11:45:00,
2013-02-14 03:49:00,24.7,22.7,30.50,NE,42,0.0,0.0,92,0.00,,---,0.00,VWS V14.01,2013-02-14 11:49:00,
2013-02-14 03:54:00,24.7,23.0,30.50,NE,42,0.0,0.0,93,0.00,,---,0.00,VWS V14.01,2013-02-14 11:54:00,
2013-02-14 03:59:00,24.7,23.0,30.50,NE,42,0.0,0.0,93,0.00,,---,0.00,VWS V14.01,2013-02-14 11:59:00,
2013-02-14 04:00:00,27.6,25.8,30.51,ENE,58,0.0,5.0,93,0.00,,---,0.00,VWS V14.01,2013-02-14 12:00:00,
2013-02-14 04:04:00,25.1,23.4,30.50,NE,42,0.0,0.0,93,0.00,,---,0.00,VWS V14.01,2013-02-14 12:04:00,
2013-02-14 04:09:00,25.5,23.8,30.50,NE,42,0.0,0.0,93,0.00,,---,0.00,VWS V14.01,2013-02-14 12:09:00,
2013-02-14 04:14:00,25.5,23.8,30.50,NE,41,0.0,0.0,93,0.00,,---,0.00,VWS V14.01,2013-02-14 12:14:00,
2013-02-14 04:15:00,26.8,24.8,30.51,NE,56,0.0,0.0,92,0.00,,---,0.00,VWS V14.01,2013-02-14 12:15:00,
2013-02-14 04:19:00,25.5,23.8,30.50,NE,41,0.0,0.0,93,0.00,,---,0.00,VWS V14.01,2013-02-14 12:19:00,
2013-02-14 04:24:00,25.5,23.8,30.50,NE,42,0.0,0.0,93,0.00,,---,0.00,VWS V14.01,2013-02-14 12:24:00,
2013-02-14 04:29:00,25.6,23.9,30.50,NE,42,0.0,0.0,93,0.00,,---,0.00,VWS V14.01,2013-02-14 12:29:00,
2013-02-14 04:30:00,25.5,23.5,30.51,NE,56,0.0,0.0,92,0.00,,---,0.00,VWS V14.01,2013-02-14 12:30:00,
2013-02-14 04:34:00,25.8,24.1,30.51,NE,42,0.0,0.0,93,0.00,,---,0.00,VWS V14.01,2013-02-14 12:34:00,
2013-02-14 04:39:00,26.1,24.6,30.50,NE,41,0.0,0.0,94,0.00,,---,0.00,VWS V14.01,2013-02-14 12:39:00,
2013-02-14 04:44:00,26.3,24.8,30.50,ENE,57,4.0,4.0,94,0.00,,---,0.00,VWS V14.01,2013-02-14 12:44:00,
2013-02-14 04:45:00,24.9,23.2,30.51,NE,56,0.0,0.0,93,0.00,,---,0.00,VWS V14.01,2013-02-14 12:45:00,
2013-02-14 04:49:00,27.2,25.7,30.51,ENE,57,3.0,5.0,94,0.00,,---,0.00,VWS V14.01,2013-02-14 12:49:00,
2013-02-14 04:54:00,27.5,26.0,30.51,ENE,58,3.0,5.0,94,0.00,,---,0.00,VWS V14.01,2013-02-14 12:54:00,
2013-02-14 04:59:00,27.6,25.8,30.51,ENE,58,0.0,5.0,93,0.00,,---,0.00,VWS V14.01,2013-02-14 12:59:00,
2013-02-14 05:00:00,25.0,23.3,30.51,NE,56,0.0,0.0,93,0.00,,---,0.00,VWS V14.01,2013-02-14 13:00:00,
2013-02-14 05:04:00,27.6,25.8,30.50,ENE,58,0.0,0.0,93,0.00,,---,0.00,VWS V14.01,2013-02-14 13:04:00,
2013-02-14 05:09:00,27.6,25.8,30.51,ENE,57,0.0,0.0,93,0.00,,---,0.00,VWS V14.01,2013-02-14 13:09:00,
2013-02-14 05:14:00,27.0,25.2,30.50,NE,56,0.0,0.0,93,0.00,,---,0.00,VWS V14.01,2013-02-14 13:14:00,
2013-02-14 05:15:00,24.8,23.1,30.51,NE,56,0.0,0.0,93,0.00,,---,0.00,VWS V14.01,2013-02-14 13:15:00,
2013-02-14 05:18:00,26.4,24.4,30.51,NE,56,0.0,0.0,92,0.00,,---,0.00,VWS V14.01,2013-02-14 13:18:00,
2013-02-14 05:23:00,25.8,23.8,30.51,NE,56,0.0,0.0,92,0.00,,---,0.00,VWS V14.01,2013-02-14 13:23:00,
2013-02-14 05:28:00,25.5,23.5,30.51,NE,56,0.0,0.0,92,0.00,,---,0.00,VWS V14.01,2013-02-14 13:28:00,
2013-02-14 05:30:00,24.2,22.5,30.51,NE,56,0.0,0.0,93,0.00,,---,0.00,VWS V14.01,2013-02-14 13:30:00,
2013-02-14 05:33:00,25.4,23.7,30.51,NE,56,0.0,0.0,93,0.00,,---,0.00,VWS V14.01,2013-02-14 13:33:00,
2013-02-14 05:38:00,25.2,23.2,30.51,NE,56,0.0,0.0,92,0.00,,---,0.00,VWS V14.01,2013-02-14 13:38:00,
2013-02-14 05:43:00,24.9,23.2,30.51,NE,56,0.0,0.0,93,0.00,,---,0.00,VWS V14.01,2013-02-14 13:43:00,
2013-02-14 05:45:00,24.2,22.5,30.52,NE,56,0.0,0.0,93,0.00,,---,0.00,VWS V14.01,2013-02-14 13:45:00,
2013-02-14 05:48:00,24.8,23.1,30.51,NE,56,0.0,0.0,93,0.00,,---,0.00,VWS V14.01,2013-02-14 13:48:00,
2013-02-14 05:53:00,24.9,23.2,30.51,NE,56,0.0,0.0,93,0.00,,---,0.00,VWS V14.01,2013-02-14 13:53:00,
2013-02-14 05:58:00,25.0,23.3,30.51,NE,56,0.0,0.0,93,0.00,,---,0.00,VWS V14.01,2013-02-14 13:58:00,
2013-02-14 06:00:00,23.9,22.2,30.52,NE,56,0.0,0.0,93,0.00,,---,0.00,VWS V14.01,2013-02-14 14:00:00,
2013-02-14 06:03:00,25.1,23.4,30.51,NE,56,0.0,0.0,93,0.00,,---,0.00,VWS V14.01,2013-02-14 14:03:00,
2013-02-14 06:08:00,25.1,23.4,30.51,NE,56,0.0,0.0,93,0.00,,---,0.00,VWS V14.01,2013-02-14 14:08:00,
2013-02-14 06:13:00,24.9,23.2,30.51,NE,56,0.0,0.0,93,0.00,,---,0.00,VWS V14.01,2013-02-14 14:13:00,
2013-02-14 06:15:00,24.7,23.2,30.53,NE,56,2.0,2.0,94,0.00,,---,0.00,VWS V14.01,2013-02-14 14:15:00,
2013-02-14 06:18:00,24.6,22.9,30.51,NE,56,0.0,0.0,93,0.00,,---,0.00,VWS V14.01,2013-02-14 14:18:00,
2013-02-14 06:23:00,24.4,22.7,30.52,NE,56,0.0,0.0,93,0.00,,---,0.00,VWS V14.01,2013-02-14 14:23:00,
2013-02-14 06:28:00,24.2,22.5,30.52,NE,56,0.0,0.0,93,0.00,,---,0.00,VWS V14.01,2013-02-14 14:28:00,
2013-02-14 06:30:00,24.7,23.2,30.52,NE,56,2.0,2.0,94,0.00,,---,0.00,VWS V14.01,2013-02-14 14:30:00,
2013-02-14 06:33:00,24.0,22.3,30.51,NE,56,0.0,0.0,93,0.00,,---,0.00,VWS V14.01,2013-02-14 14:33:00,
2013-02-14 06:38:00,24.0,22.3,30.51,NE,56,0.0,0.0,93,0.00,,---,0.00,VWS V14.01,2013-02-14 14:38:00,
2013-02-14 06:43:00,24.2,22.5,30.52,NE,56,0.0,0.0,93,0.00,,---,0.00,VWS V14.01,2013-02-14 14:43:00,
2013-02-14 06:45:00,24.7,23.2,30.53,NE,56,2.0,2.0,94,0.00,,---,0.00,VWS V14.01,2013-02-14 14:45:00,
2013-02-14 06:48:00,24.2,22.5,30.52,NE,56,0.0,0.0,93,0.00,,---,0.00,VWS V14.01,2013-02-14 14:48:00,
2013-02-14 06:53:00,24.2,22.5,30.52,NE,56,0.0,0.0,93,0.00,,---,0.00,VWS V14.01,2013-02-14 14:53:00,
2013-02-14 06:58:00,23.9,22.2,30.52,NE,56,0.0,0.0,93,0.00,,---,0.00,VWS V14.01,2013-02-14 14:58:00,
2013-02-14 07:00:00,24.0,22.3,30.53,NE,56,0.0,2.0,93,0.00,,---,0.00,VWS V14.01,2013-02-14 15:00:00,
2013-02-14 07:03:00,24.2,22.5,30.52,NE,56,0.0,0.0,93,0.00,,---,0.00,VWS V14.01,2013-02-14 15:03:00,
2013-02-14 07:08:00,24.7,23.2,30.52,NE,56,2.0,2.0,94,0.00,,---,0.00,VWS V14.01,2013-02-14 15:08:00,
2013-02-14 07:13:00,24.7,23.2,30.53,NE,56,2.0,2.0,94,0.00,,---,0.00,VWS V14.01,2013-02-14 15:13:00,
2013-02-14 07:15:00,25.5,24.0,30.54,NE,56,0.0,0.0,94,0.00,,---,0.00,VWS V14.01,2013-02-14 15:15:00,
2013-02-14 07:18:00,24.7,23.2,30.53,NE,56,2.0,2.0,94,0.00,,---,0.00,VWS V14.01,2013-02-14 15:18:00,
2013-02-14 07:23:00,24.7,23.2,30.53,NE,56,2.0,2.0,94,0.00,,---,0.00,VWS V14.01,2013-02-14 15:23:00,
2013-02-14 07:28:00,24.7,23.2,30.53,NE,56,2.0,2.0,94,0.00,,---,0.00,VWS V14.01,2013-02-14 15:28:00,
2013-02-14 07:30:00,26.8,25.3,30.55,NE,56,0.0,0.0,94,0.00,,---,0.00,VWS V14.01,2013-02-14 15:30:00,
2013-02-14 07:33:00,24.7,23.2,30.53,NE,56,2.0,2.0,94,0.00,,---,0.00,VWS V14.01,2013-02-14 15:33:00,
2013-02-14 07:38:00,24.7,23.2,30.53,NE,56,2.0,2.0,94,0.00,,---,0.00,VWS V14.01,2013-02-14 15:38:00,
2013-02-14 07:43:00,24.7,23.2,30.53,NE,56,2.0,2.0,94,0.00,,---,0.00,VWS V14.01,2013-02-14 15:43:00,
2013-02-14 07:45:00,27.4,25.9,30.55,NE,56,0.0,0.0,94,0.00,,---,0.00,VWS V14.01,2013-02-14 15:45:00,
2013-02-14 07:48:00,24.7,23.2,30.53,NE,56,2.0,2.0,94,0.00,,---,0.00,VWS V14.01,2013-02-14 15:48:00,
2013-02-14 07:53:00,23.7,22.0,30.53,NE,56,0.0,2.0,93,0.00,,---,0.00,VWS V14.01,2013-02-14 15:53:00,
2013-02-14 07:58:00,23.9,22.2,30.53,NE,56,0.0,2.0,93,0.00,,---,0.00,VWS V14.01,2013-02-14 15:58:00,
2013-02-14 08:00:00,28.2,26.4,30.55,NE,56,0.0,0.0,93,0.00,,---,0.00,VWS V14.01,2013-02-14 16:00:00,
2013-02-14 08:03:00,24.3,22.6,30.54,NE,56,0.0,0.0,93,0.00,,---,0.00,VWS V14.01,2013-02-14 16:03:00,
2013-02-14 08:08:00,24.7,23.0,30.54,NE,56,0.0,0.0,93,0.00,,---,0.00,VWS V14.01,2013-02-14 16:08:00,
2013-02-14 08:13:00,25.3,23.6,30.54,NE,56,0.0,0.0,93,0.00,,---,0.00,VWS V14.01,2013-02-14 16:13:00,
2013-02-14 08:15:00,29.2,27.4,30.55,NE,56,0.0,0.0,93,0.00,,---,0.00,VWS V14.01,2013-02-14 16:15:00,
2013-02-14 08:18:00,25.8,24.3,30.54,NE,56,0.0,0.0,94,0.00,,---,0.00,VWS V14.01,2013-02-14 16:18:00,
2013-02-14 08:23:00,26.1,24.6,30.55,NE,56,0.0,0.0,94,0.00,,---,0.00,VWS V14.01,2013-02-14 16:23:00,
2013-02-14 08:28:00,26.6,25.1,30.55,NE,56,0.0,0.0,94,0.00,,---,0.00,VWS V14.01,2013-02-14 16:28:00,
2013-02-14 08:30:00,29.4,27.4,30.55,NE,56,0.0,0.0,92,0.00,,---,0.00,VWS V14.01,2013-02-14 16:30:00,
2013-02-14 08:33:00,26.9,25.4,30.55,NE,56,0.0,0.0,94,0.00,,---,0.00,VWS V14.01,2013-02-14 16:33:00,
2013-02-14 08:38:00,27.1,25.4,30.55,NE,56,0.0,0.0,93,0.00,,---,0.00,VWS V14.01,2013-02-14 16:38:00,
2013-02-14 08:43:00,27.2,25.7,30.55,NE,56,0.0,0.0,94,0.00,,---,0.00,VWS V14.01,2013-02-14 16:43:00,
2013-02-14 08:45:00,30.6,28.8,30.55,NE,56,0.0,0.0,93,0.00,,---,0.00,VWS V14.01,2013-02-14 16:45:00,
2013-02-14 08:48:00,27.6,25.8,30.55,NE,56,0.0,0.0,93,0.00,,---,0.00,VWS V14.01,2013-02-14 16:48:00,
2013-02-14 08:53:00,27.9,26.4,30.55,NE,56,0.0,0.0,94,0.00,,---,0.00,VWS V14.01,2013-02-14 16:53:00,
2013-02-14 08:58:00,28.1,26.3,30.55,NE,56,0.0,0.0,93,0.00,,---,0.00,VWS V14.01,2013-02-14 16:58:00,
2013-02-14 09:00:00,33.2,31.1,30.55,NE,56,0.0,0.0,92,0.00,,---,0.00,VWS V14.01,2013-02-14 17:00:00,
2013-02-14 09:03:00,28.3,26.5,30.55,NE,56,0.0,0.0,93,0.00,,---,0.00,VWS V14.01,2013-02-14 17:03:00,
2013-02-14 09:08:00,28.8,27.0,30.55,NE,56,0.0,0.0,93,0.00,,---,0.00,VWS V14.01,2013-02-14 17:08:00,
2013-02-14 09:13:00,29.1,27.3,30.55,NE,56,0.0,0.0,93,0.00,,---,0.00,VWS V14.01,2013-02-14 17:13:00,
2013-02-14 09:15:00,33.8,31.2,30.55,NE,56,0.0,0.0,90,0.00,,---,0.00,VWS V14.01,2013-02-14 17:15:00,
2013-02-14 09:18:00,29.3,27.5,30.55,NE,56,0.0,0.0,93,0.00,,---,0.00,VWS V14.01,2013-02-14 17:18:00,
2013-02-14 09:23:00,29.3,27.3,30.55,NE,56,0.0,0.0,92,0.00,,---,0.00,VWS V14.01,2013-02-14 17:23:00,
2013-02-14 09:28:00,29.3,27.3,30.55,NE,56,0.0,0.0,92,0.00,,---,0.00,VWS V14.01,2013-02-14 17:28:00,
2013-02-14 09:30:00,34.4,31.8,30.55,NE,56,0.0,0.0,90,0.00,,---,0.00,VWS V14.01,2013-02-14 17:30:00,
2013-02-14 09:33:00,29.4,27.4,30.55,NE,56,0.0,0.0,92,0.00,,---,0.00,VWS V14.01,2013-02-14 17:33:00,
2013-02-14 09:38:00,29.8,28.0,30.55,NE,56,0.0,0.0,93,0.00,,---,0.00,VWS V14.01,2013-02-14 17:38:00,
2013-02-14 09:43:00,30.4,28.6,30.55,NE,56,0.0,0.0,93,0.00,,---,0.00,VWS V14.01,2013-02-14 17:43:00,
2013-02-14 09:45:00,36.9,33.7,30.55,NE,56,0.0,0.0,88,0.00,,---,0.00,VWS V14.01,2013-02-14 17:45:00,
2013-02-14 09:48:00,31.0,29.2,30.55,NE,56,0.0,0.0,93,0.00,,---,0.00,VWS V14.01,2013-02-14 17:48:00,
2013-02-14 09:53:00,32.1,30.3,30.55,NE,56,0.0,0.0,93,0.00,,---,0.00,VWS V14.01,2013-02-14 17:53:00,
2013-02-14 09:58:00,32.8,30.7,30.55,NE,56,0.0,0.0,92,0.00,,---,0.00,VWS V14.01,2013-02-14 17:58:00,
2013-02-14 10:00:00,38.4,34.3,30.55,NE,56,0.0,0.0,85,0.00,,---,0.00,VWS V14.01,2013-02-14 18:00:00,
2013-02-14 10:03:00,33.7,31.6,30.55,NE,56,0.0,0.0,92,0.00,,---,0.00,VWS V14.01,2013-02-14 18:03:00,
2013-02-14 10:08:00,33.9,31.6,30.55,NE,56,0.0,0.0,91,0.00,,---,0.00,VWS V14.01,2013-02-14 18:08:00,
2013-02-14 10:13:00,33.8,31.2,30.55,NE,56,0.0,0.0,90,0.00,,---,0.00,VWS V14.01,2013-02-14 18:13:00,
2013-02-14 10:15:00,40.2,35.2,30.55,NE,56,0.0,0.0,82,0.00,,---,0.00,VWS V14.01,2013-02-14 18:15:00,
2013-02-14 10:18:00,33.8,31.2,30.55,NE,56,0.0,0.0,90,0.00,,---,0.00,VWS V14.01,2013-02-14 18:18:00,
2013-02-14 10:23:00,33.9,31.3,30.55,NE,56,0.0,0.0,90,0.00,,---,0.00,VWS V14.01,2013-02-14 18:23:00,
2013-02-14 10:28:00,34.3,31.7,30.55,NE,56,0.0,0.0,90,0.00,,---,0.00,VWS V14.01,2013-02-14 18:28:00,
2013-02-14 10:30:00,41.5,35.5,30.54,NE,56,0.0,0.0,79,0.00,,---,0.00,VWS V14.01,2013-02-14 18:30:00,
2013-02-14 10:33:00,34.6,32.0,30.55,NE,56,0.0,0.0,90,0.00,,---,0.00,VWS V14.01,2013-02-14 18:33:00,
2013-02-14 10:38:00,35.5,32.9,30.55,NE,56,0.0,0.0,90,0.00,,---,0.00,VWS V14.01,2013-02-14 18:38:00,
2013-02-14 10:43:00,36.4,33.2,30.55,NE,56,0.0,0.0,88,0.00,,---,0.00,VWS V14.01,2013-02-14 18:43:00,
2013-02-14 10:45:00,42.9,35.9,30.54,NE,56,0.0,0.0,76,0.00,,---,0.00,VWS V14.01,2013-02-14 18:45:00,
2013-02-14 10:48:00,37.3,33.8,30.55,NE,56,0.0,0.0,87,0.00,,---,0.00,VWS V14.01,2013-02-14 18:48:00,
2013-02-14 10:53:00,37.8,34.0,30.55,NE,56,0.0,0.0,86,0.00,,---,0.00,VWS V14.01,2013-02-14 18:53:00,
2013-02-14 10:58:00,38.3,34.5,30.55,NE,56,0.0,0.0,86,0.00,,---,0.00,VWS V14.01,2013-02-14 18:58:00,
2013-02-14 11:00:00,44.7,35.9,30.53,NE,55,0.0,0.0,71,0.00,,---,0.00,VWS V14.01,2013-02-14 19:00:00,
2013-02-14 11:03:00,38.6,34.5,30.55,NE,56,0.0,0.0,85,0.00,,---,0.00,VWS V14.01,2013-02-14 19:03:00,
2013-02-14 11:07:00,39.1,34.7,30.55,NE,56,0.0,0.0,84,0.00,,---,0.00,VWS V14.01,2013-02-14 19:07:00,
2013-02-14 11:12:00,39.8,35.1,30.55,NE,56,0.0,0.0,83,0.00,,---,0.00,VWS V14.01,2013-02-14 19:12:00,
2013-02-14 11:15:00,46.0,35.7,30.53,NE,56,0.0,2.0,67,0.00,,---,0.00,VWS V14.01,2013-02-14 19:15:00,
2013-02-14 11:17:00,40.4,35.0,30.55,NE,56,0.0,0.0,81,0.00,,---,0.00,VWS V14.01,2013-02-14 19:17:00,
2013-02-14 11:22:00,40.7,35.0,30.55,NE,56,0.0,0.0,80,0.00,,---,0.00,VWS V14.01,2013-02-14 19:22:00,
2013-02-14 11:27:00,41.1,35.1,30.54,NE,56,0.0,0.0,79,0.00,,---,0.00,VWS V14.01,2013-02-14 19:27:00,
2013-02-14 11:30:00,46.8,35.7,30.52,ESE,113,0.0,4.0,65,0.00,,---,0.00,VWS V14.01,2013-02-14 19:30:00,
2013-02-14 11:32:00,41.7,35.4,30.54,NE,56,0.0,0.0,78,0.00,,---,0.00,VWS V14.01,2013-02-14 19:32:00,
2013-02-14 11:37:00,42.1,35.4,30.54,NE,56,0.0,0.0,77,0.00,,---,0.00,VWS V14.01,2013-02-14 19:37:00,
2013-02-14 11:42:00,42.7,36.0,30.54,NE,56,0.0,0.0,77,0.00,,---,0.00,VWS V14.01,2013-02-14 19:42:00,
2013-02-14 11:45:00,46.3,36.0,30.52,ESE,113,0.0,2.0,67,0.00,,---,0.00,VWS V14.01,2013-02-14 19:45:00,
2013-02-14 11:47:00,43.2,35.8,30.54,NE,56,0.0,0.0,75,0.00,,---,0.00,VWS V14.01,2013-02-14 19:47:00,
2013-02-14 11:52:00,43.9,35.8,30.54,NE,56,0.0,0.0,73,0.00,,---,0.00,VWS V14.01,2013-02-14 19:52:00,
2013-02-14 11:57:00,44.5,36.0,30.53,NE,56,0.0,0.0,72,0.00,,---,0.00,VWS V14.01,2013-02-14 19:57:00,
2013-02-14 12:00:00,47.3,35.8,30.51,ESE,113,0.0,2.0,64,0.00,,---,0.00,VWS V14.01,2013-02-14 20:00:00,
2013-02-14 12:02:00,44.9,35.7,30.53,NE,56,0.0,0.0,70,0.00,,---,0.00,VWS V14.01,2013-02-14 20:02:00,
2013-02-14 12:07:00,45.4,36.9,30.53,NE,56,0.0,0.0,72,0.00,,---,0.00,VWS V14.01,2013-02-14 20:07:00,
2013-02-14 12:12:00,46.0,36.0,30.53,NE,56,2.0,2.0,68,0.00,,---,0.00,VWS V14.01,2013-02-14 20:12:00,
2013-02-14 12:15:00,47.3,35.0,30.51,ESE,113,0.0,2.0,62,0.00,,---,0.00,VWS V14.01,2013-02-14 20:15:00,
2013-02-14 12:17:00,46.1,35.8,30.53,NE,56,0.0,0.0,67,0.00,,---,0.00,VWS V14.01,2013-02-14 20:17:00,
2013-02-14 12:22:00,46.5,35.8,30.53,ENE,57,0.0,0.0,66,0.00,,---,0.00,VWS V14.01,2013-02-14 20:22:00,
2013-02-14 12:27:00,46.7,35.6,30.52,ESE,113,0.0,4.0,65,0.00,,---,0.00,VWS V14.01,2013-02-14 20:27:00,
2013-02-14 12:30:00,48.1,35.7,30.50,ESE,113,0.0,0.0,62,0.00,,---,0.00,VWS V14.01,2013-02-14 20:30:00,
2013-02-14 12:32:00,46.8,35.7,30.52,ESE,113,0.0,0.0,65,0.00,,---,0.00,VWS V14.01,2013-02-14 20:32:00,
2013-02-14 12:37:00,46.7,35.6,30.52,ESE,113,0.0,0.0,65,0.00,,---,0.00,VWS V14.01,2013-02-14 20:37:00,
2013-02-14 12:42:00,46.3,35.6,30.52,ESE,113,0.0,2.0,66,0.00,,---,0.00,VWS V14.01,2013-02-14 20:42:00,
2013-02-14 12:45:00,48.2,35.8,30.50,ESE,113,0.0,2.0,62,0.00,,---,0.00,VWS V14.01,2013-02-14 20:45:00,
2013-02-14 12:47:00,46.5,35.8,30.51,ESE,113,0.0,0.0,66,0.00,,---,0.00,VWS V14.01,2013-02-14 20:47:00,
2013-02-14 12:52:00,47.1,36.0,30.51,ESE,113,0.0,2.0,65,0.00,,---,0.00,VWS V14.01,2013-02-14 20:52:00,
2013-02-14 12:57:00,47.3,35.8,30.51,ESE,113,0.0,2.0,64,0.00,,---,0.00,VWS V14.01,2013-02-14 20:57:00,
2013-02-14 13:00:00,49.1,36.2,30.49,ESE,113,2.0,5.0,61,0.00,,---,0.00,VWS V14.01,2013-02-14 21:00:00,
2013-02-14 13:02:00,47.4,35.8,30.51,ESE,113,0.0,0.0,64,0.00,,---,0.00,VWS V14.01,2013-02-14 21:02:00,
2013-02-14 13:07:00,47.2,35.3,30.51,ESE,113,0.0,2.0,63,0.00,,---,0.00,VWS V14.01,2013-02-14 21:07:00,
2013-02-14 13:12:00,47.4,35.5,30.51,ESE,113,0.0,2.0,63,0.00,,---,0.00,VWS V14.01,2013-02-14 21:12:00,
2013-02-14 13:15:00,49.2,37.2,30.48,NE,51,3.0,5.0,63,0.00,,---,0.00,VWS V14.01,2013-02-14 21:15:00,
2013-02-14 13:17:00,47.3,35.0,30.51,ESE,113,0.0,0.0,62,0.00,,---,0.00,VWS V14.01,2013-02-14 21:17:00,
2013-02-14 13:22:00,47.6,35.6,30.51,ESE,113,0.0,0.0,63,0.00,,---,0.00,VWS V14.01,2013-02-14 21:22:00,
2013-02-14 13:27:00,47.9,35.5,30.50,ESE,113,0.0,0.0,62,0.00,,---,0.00,VWS V14.01,2013-02-14 21:27:00,
2013-02-14 13:30:00,49.4,36.9,30.48,ENE,57,2.0,7.0,62,0.00,,---,0.00,VWS V14.01,2013-02-14 21:30:00,
2013-02-14 13:32:00,48.0,35.6,30.50,ESE,113,0.0,0.0,62,0.00,,---,0.00,VWS V14.01,2013-02-14 21:32:00,
2013-02-14 13:37:00,47.9,35.5,30.50,ESE,113,0.0,0.0,62,0.00,,---,0.00,VWS V14.01,2013-02-14 21:37:00,
2013-02-14 13:42:00,48.0,36.0,30.50,ESE,113,1.0,1.0,63,0.00,,---,0.00,VWS V14.01,2013-02-14 21:42:00,
2013-02-14 13:45:00,50.1,36.8,30.47,ESE,115,1.0,6.0,60,0.00,,---,0.00,VWS V14.01,2013-02-14 21:45:00,
2013-02-14 13:47:00,48.3,35.9,30.50,ESE,113,0.0,0.0,62,0.00,,---,0.00,VWS V14.01,2013-02-14 21:47:00,
2013-02-14 13:52:00,48.7,36.7,30.49,ESE,113,2.0,5.0,63,0.00,,---,0.00,VWS V14.01,2013-02-14 21:52:00,
2013-02-14 13:57:00,48.9,36.1,30.49,ESE,113,1.0,5.0,61,0.00,,---,0.00,VWS V14.01,2013-02-14 21:57:00,
2013-02-14 14:00:00,50.9,37.9,30.47,East,83,0.0,6.0,61,0.00,,---,0.00,VWS V14.01,2013-02-14 22:00:00,
2013-02-14 14:02:00,49.2,36.8,30.49,ESE,113,4.0,5.0,62,0.00,,---,0.00,VWS V14.01,2013-02-14 22:02:00,
2013-02-14 14:07:00,49.2,36.3,30.48,ENE,60,3.0,5.0,61,0.00,,---,0.00,VWS V14.01,2013-02-14 22:07:00,
2013-02-14 14:12:00,49.2,36.8,30.48,ENE,59,3.0,5.0,62,0.00,,---,0.00,VWS V14.01,2013-02-14 22:12:00,
2013-02-14 14:15:00,52.5,38.2,30.47,East,86,0.0,3.0,58,0.00,,---,0.00,VWS V14.01,2013-02-14 22:15:00,
2013-02-14 14:17:00,49.2,36.3,30.48,NE,50,2.0,4.0,61,0.00,,---,0.00,VWS V14.01,2013-02-14 22:17:00,
2013-02-14 14:22:00,49.5,37.4,30.48,NE,53,6.0,6.0,63,0.00,,---,0.00,VWS V14.01,2013-02-14 22:22:00,
2013-02-14 14:27:00,49.4,36.9,30.48,ENE,58,4.0,7.0,62,0.00,,---,0.00,VWS V14.01,2013-02-14 22:27:00,
2013-02-14 14:30:00,51.6,37.8,30.47,ESE,123,4.0,6.0,59,0.00,,---,0.00,VWS V14.01,2013-02-14 22:30:00,
2013-02-14 14:32:00,49.5,37.0,30.48,ENE,63,3.0,4.0,62,0.00,,---,0.00,VWS V14.01,2013-02-14 22:32:00,
2013-02-14 14:37:00,49.7,37.2,30.47,ENE,73,4.0,4.0,62,0.00,,---,0.00,VWS V14.01,2013-02-14 22:37:00,
2013-02-14 14:42:00,50.0,37.5,30.48,ENE,72,3.0,4.0,62,0.00,,---,0.00,VWS V14.01,2013-02-14 22:42:00,
2013-02-14 14:45:00,52.9,38.5,30.47,ESE,123,0.0,5.0,58,0.00,,---,0.00,VWS V14.01,2013-02-14 22:45:00,
2013-02-14 14:47:00,50.4,37.5,30.47,ESE,116,4.0,5.0,61,0.00,,---,0.00,VWS V14.01,2013-02-14 22:47:00,
2013-02-14 14:52:00,50.6,37.2,30.47,East,87,3.0,6.0,60,0.00,,---,0.00,VWS V14.01,2013-02-14 22:52:00,
2013-02-14 14:57:00,50.7,37.8,30.47,East,83,0.0,6.0,61,0.00,,---,0.00,VWS V14.01,2013-02-14 22:57:00,
2013-02-14 15:00:00,53.1,38.3,30.46,West,266,5.0,5.0,57,0.00,,---,0.00,VWS V14.01,2013-02-14 23:00:00,
2013-02-14 15:02:00,51.1,38.1,30.47,East,83,0.0,0.0,61,0.00,,---,0.00,VWS V14.01,2013-02-14 23:02:00,
2013-02-14 15:07:00,51.4,37.6,30.47,East,83,0.0,0.0,59,0.00,,---,0.00,VWS V14.01,2013-02-14 23:07:00,
2013-02-14 15:12:00,52.0,38.1,30.47,East,86,2.0,3.0,59,0.00,,---,0.00,VWS V14.01,2013-02-14 23:12:00,
2013-02-14 15:15:00,52.4,38.9,30.46,NW,325,6.0,7.0,60,0.00,,---,0.00,VWS V14.01,2013-02-14 23:15:00,
2013-02-14 15:17:00,52.7,38.8,30.47,East,86,2.0,3.0,59,0.00,,---,0.00,VWS V14.01,2013-02-14 23:17:00,
2013-02-14 15:22:00,52.2,37.9,30.47,ESE,103,2.0,5.0,58,0.00,,---,0.00,VWS V14.01,2013-02-14 23:22:00,
2013-02-14 15:27:00,51.6,38.2,30.47,ESE,123,4.0,6.0,60,0.00,,---,0.00,VWS V14.01,2013-02-14 23:27:00,
2013-02-14 15:30:00,52.0,39.0,30.46,WNW,302,4.0,9.0,61,0.00,,---,0.00,VWS V14.01,2013-02-14 23:30:00,
2013-02-14 15:32:00,51.7,38.3,30.47,ESE,123,5.0,5.0,60,0.00,,---,0.00,VWS V14.01,2013-02-14 23:32:00,
2013-02-14 15:37:00,51.8,37.9,30.47,ESE,122,2.0,5.0,59,0.00,,---,0.00,VWS V14.01,2013-02-14 23:37:00,
2013-02-14 15:42:00,52.4,38.5,30.47,ESE,122,0.0,5.0,59,0.00,,---,0.00,VWS V14.01,2013-02-14 23:42:00,
2013-02-14 15:45:00,51.5,38.5,30.46,WNW,302,3.0,8.0,61,0.00,,---,0.00,VWS V14.01,2013-02-14 23:45:00,
2013-02-14 15:47:00,53.1,38.3,30.47,South,178,4.0,4.0,57,0.00,,---,0.00,VWS V14.01,2013-02-14 23:47:00,
2013-02-14 15:52:00,53.2,38.4,30.46,South,178,0.0,4.0,57,0.00,,---,0.00,VWS V14.01,2013-02-14 23:52:00,
2013-02-14 15:57:00,53.1,38.3,30.46,South,178,5.0,5.0,57,0.00,,---,0.00,VWS V14.01,2013-02-14 23:57:00,
2013-02-14 16:00:00,50.8,39.1,30.45,WNW,288,5.0,6.0,64,0.00,,---,0.00,VWS V14.01,2013-02-15 00:00:00,
2013-02-14 16:02:00,53.0,38.2,30.46,West,275,4.0,7.0,57,0.00,,---,0.00,VWS V14.01,2013-02-15 00:02:00,
2013-02-14 16:07:00,52.6,37.8,30.46,WNW,284,2.0,7.0,57,0.00,,---,0.00,VWS V14.01,2013-02-15 00:07:00,
2013-02-14 16:12:00,52.5,38.2,30.46,WNW,290,5.0,7.0,58,0.00,,---,0.00,VWS V14.01,2013-02-15 00:12:00,
2013-02-14 16:15:00,49.9,38.6,30.45,West,268,5.0,6.0,65,0.00,,---,0.00,VWS V14.01,2013-02-15 00:15:00,
2013-02-14 16:17:00,52.3,38.8,30.46,NW,322,4.0,8.0,60,0.00,,---,0.00,VWS V14.01,2013-02-15 00:17:00,
2013-02-14 16:22:00,52.2,38.8,30.46,WNW,298,6.0,9.0,60,0.00,,---,0.00,VWS V14.01,2013-02-15 00:22:00,
2013-02-14 16:27:00,52.0,38.6,30.46,WNW,289,5.0,9.0,60,0.00,,---,0.00,VWS V14.01,2013-02-15 00:27:00,
2013-02-14 16:30:00,48.8,38.3,30.45,West,280,5.0,6.0,67,0.00,,---,0.00,VWS V14.01,2013-02-15 00:30:00,
2013-02-14 16:32:00,52.0,38.6,30.46,WNW,302,7.0,7.0,60,0.00,,---,0.00,VWS V14.01,2013-02-15 00:32:00,
2013-02-14 16:37:00,51.9,38.9,30.46,NW,306,5.0,8.0,61,0.00,,---,0.00,VWS V14.01,2013-02-15 00:37:00,
2013-02-14 16:41:00,51.7,39.1,30.46,NW,306,7.0,8.0,62,0.00,,---,0.00,VWS V14.01,2013-02-15 00:41:00,
2013-02-14 16:45:00,47.3,37.3,30.45,West,281,2.0,5.0,68,0.00,,---,0.00,VWS V14.01,2013-02-15 00:45:00,
2013-02-14 16:46:00,51.5,38.9,30.46,NW,305,3.0,5.0,62,0.00,,---,0.00,VWS V14.01,2013-02-15 00:46:00,
2013-02-14 16:51:00,51.2,39.0,30.46,WNW,299,2.0,6.0,63,0.00,,---,0.00,VWS V14.01,2013-02-15 00:51:00,
2013-02-14 16:56:00,51.0,39.3,30.45,WNW,299,3.0,6.0,64,0.00,,---,0.00,VWS V14.01,2013-02-15 00:56:00,
2013-02-14 17:00:00,47.1,37.8,30.46,West,260,0.0,8.0,70,0.00,,---,0.00,VWS V14.01,2013-02-15 01:00:00,
2013-02-14 17:01:00,50.7,39.0,30.45,WNW,288,4.0,6.0,64,0.00,,---,0.00,VWS V14.01,2013-02-15 01:01:00,
2013-02-14 17:06:00,50.5,39.2,30.45,WNW,287,5.0,6.0,65,0.00,,---,0.00,VWS V14.01,2013-02-15 01:06:00,
2013-02-14 17:11:00,50.3,39.0,30.45,WNW,288,6.0,6.0,65,0.00,,---,0.00,VWS V14.01,2013-02-15 01:11:00,
2013-02-14 17:15:00,46.0,37.8,30.46,WNW,296,3.0,7.0,73,0.00,,---,0.00,VWS V14.01,2013-02-15 01:15:00,
2013-02-14 17:16:00,49.7,38.8,30.45,West,273,5.0,5.0,66,0.00,,---,0.00,VWS V14.01,2013-02-15 01:16:00,
2013-02-14 17:21:00,49.2,38.3,30.45,West,279,5.0,6.0,66,0.00,,---,0.00,VWS V14.01,2013-02-15 01:21:00,
2013-02-14 17:26:00,49.0,38.5,30.45,West,279,5.0,6.0,67,0.00,,---,0.00,VWS V14.01,2013-02-15 01:26:00,
2013-02-14 17:30:00,46.6,38.1,30.47,SSW,209,3.0,6.0,72,0.00,,---,0.00,VWS V14.01,2013-02-15 01:30:00,
2013-02-14 17:31:00,48.6,38.2,30.45,West,280,4.0,5.0,67,0.00,,---,0.00,VWS V14.01,2013-02-15 01:31:00,
2013-02-14 17:36:00,48.3,37.9,30.45,West,280,0.0,5.0,67,0.00,,---,0.00,VWS V14.01,2013-02-15 01:36:00,
2013-02-14 17:41:00,47.8,37.8,30.45,West,280,0.0,5.0,68,0.00,,---,0.00,VWS V14.01,2013-02-15 01:41:00,
2013-02-14 17:45:00,46.0,37.5,30.47,West,265,8.0,9.0,72,0.00,,---,0.00,VWS V14.01,2013-02-15 01:45:00,
2013-02-14 17:46:00,47.1,37.5,30.45,WNW,286,5.0,6.0,69,0.00,,---,0.00,VWS V14.01,2013-02-15 01:46:00,
2013-02-14 17:51:00,47.1,37.8,30.45,WNW,288,4.0,6.0,70,0.00,,---,0.00,VWS V14.01,2013-02-15 01:51:00,
2013-02-14 17:56:00,47.1,37.5,30.46,WNW,288,3.0,6.0,69,0.00,,---,0.00,VWS V14.01,2013-02-15 01:56:00,
2013-02-14 18:00:00,44.6,37.2,30.47,NW,312,1.0,9.0,75,0.00,,---,0.00,VWS V14.01,2013-02-15 02:00:00,
2013-02-14 18:01:00,47.0,37.4,30.46,WNW,290,5.0,7.0,69,0.00,,---,0.00,VWS V14.01,2013-02-15 02:01:00,
2013-02-14 18:06:00,46.5,37.3,30.46,WNW,282,3.0,7.0,70,0.00,,---,0.00,VWS V14.01,2013-02-15 02:06:00,
2013-02-14 18:11:00,45.9,37.4,30.46,WNW,296,3.0,7.0,72,0.00,,---,0.00,VWS V14.01,2013-02-15 02:11:00,
2013-02-14 18:15:00,43.6,36.9,30.47,West,276,3.0,5.0,77,0.00,,---,0.00,VWS V14.01,2013-02-15 02:15:00,
2013-02-14 18:16:00,46.1,37.9,30.46,WNW,296,3.0,5.0,73,0.00,,---,0.00,VWS V14.01,2013-02-15 02:16:00,
2013-02-14 18:21:00,46.1,37.9,30.46,West,260,5.0,6.0,73,0.00,,---,0.00,VWS V14.01,2013-02-15 02:21:00,
2013-02-14 18:26:00,46.4,38.2,30.47,WSW,258,4.0,6.0,73,0.00,,---,0.00,VWS V14.01,2013-02-15 02:26:00,
2013-02-14 18:30:00,43.3,36.9,30.47,WNW,289,4.0,6.0,78,0.00,,---,0.00,VWS V14.01,2013-02-15 02:30:00,
2013-02-14 18:31:00,46.6,38.1,30.47,WSW,242,4.0,6.0,72,0.00,,---,0.00,VWS V14.01,2013-02-15 02:31:00,
2013-02-14 18:36:00,46.7,38.2,30.47,West,259,3.0,6.0,72,0.00,,---,0.00,VWS V14.01,2013-02-15 02:36:00,
2013-02-14 18:41:00,46.7,37.8,30.47,West,265,7.0,7.0,71,0.00,,---,0.00,VWS V14.01,2013-02-15 02:41:00,
2013-02-14 18:45:00,40.9,35.2,30.48,East,88,0.0,8.0,80,0.00,,---,0.00,VWS V14.01,2013-02-15 02:45:00,
2013-02-14 18:46:00,46.0,37.8,30.47,West,264,8.0,9.0,73,0.00,,---,0.00,VWS V14.01,2013-02-15 02:46:00,
2013-02-14 18:51:00,45.8,37.7,30.47,WNW,292,2.0,9.0,73,0.00,,---,0.00,VWS V14.01,2013-02-15 02:51:00,
2013-02-14 18:56:00,45.0,37.2,30.47,NW,309,1.0,9.0,74,0.00,,---,0.00,VWS V14.01,2013-02-15 02:56:00,
2013-02-14 19:00:00,42.2,35.8,30.48,NE,46,0.0,0.0,78,0.00,,---,0.00,VWS V14.01,2013-02-15 03:00:00,
2013-02-14 19:01:00,44.5,37.1,30.47,NW,312,2.0,3.0,75,0.00,,---,0.00,VWS V14.01,2013-02-15 03:01:00,
2013-02-14 19:06:00,44.3,37.2,30.47,NW,311,0.0,3.0,76,0.00,,---,0.00,VWS V14.01,2013-02-15 03:06:00,
2013-02-14 19:11:00,43.8,37.1,30.47,NW,311,0.0,3.0,77,0.00,,---,0.00,VWS V14.01,2013-02-15 03:11:00,
2013-02-14 19:15:00,39.2,33.2,30.48,ENE,78,0.0,0.0,79,0.00,,---,0.00,VWS V14.01,2013-02-15 03:15:00,
2013-02-14 19:16:00,43.5,37.1,30.47,West,276,3.0,4.0,78,0.00,,---,0.00,VWS V14.01,2013-02-15 03:16:00,
2013-02-14 19:21:00,43.1,36.7,30.47,West,276,0.0,4.0,78,0.00,,---,0.00,VWS V14.01,2013-02-15 03:21:00,
2013-02-14 19:26:00,43.1,37.0,30.47,West,276,0.0,4.0,79,0.00,,---,0.00,VWS V14.01,2013-02-15 03:26:00,
2013-02-14 19:30:00,36.5,32.4,30.48,NE,44,4.0,7.0,85,0.00,,---,0.00,VWS V14.01,2013-02-15 03:30:00,
2013-02-14 19:31:00,43.3,36.9,30.48,WNW,289,4.0,5.0,78,0.00,,---,0.00,VWS V14.01,2013-02-15 03:31:00,
2013-02-14 19:36:00,43.2,36.8,30.48,WNW,292,3.0,5.0,78,0.00,,---,0.00,VWS V14.01,2013-02-15 03:36:00,
2013-02-14 19:41:00,41.8,35.5,30.48,East,101,5.0,8.0,78,0.00,,---,0.00,VWS V14.01,2013-02-15 03:41:00,
2013-02-14 19:45:00,39.0,34.6,30.48,NNE,15,3.0,7.0,84,0.00,,---,0.00,VWS V14.01,2013-02-15 03:45:00,
2013-02-14 19:46:00,40.9,35.2,30.48,East,90,0.0,0.0,80,0.00,,---,0.00,VWS V14.01,2013-02-15 03:46:00,
2013-02-14 19:51:00,41.0,35.0,30.48,ENE,59,0.0,0.0,79,0.00,,---,0.00,VWS V14.01,2013-02-15 03:51:00,
2013-02-14 19:56:00,41.3,35.9,30.48,NE,55,0.0,0.0,81,0.00,,---,0.00,VWS V14.01,2013-02-15 03:56:00,
2013-02-14 20:00:00,37.3,32.6,30.49,NNE,15,0.0,4.0,83,0.00,,---,0.00,VWS V14.01,2013-02-15 04:00:00,
2013-02-14 20:01:00,42.0,35.3,30.48,NE,44,0.0,0.0,77,0.00,,---,0.00,VWS V14.01,2013-02-15 04:01:00,
2013-02-14 20:06:00,41.9,35.9,30.48,NE,38,0.0,0.0,79,0.00,,---,0.00,VWS V14.01,2013-02-15 04:06:00,
2013-02-14 20:11:00,40.7,34.1,30.48,NE,38,0.0,0.0,77,0.00,,---,0.00,VWS V14.01,2013-02-15 04:11:00,
2013-02-14 20:15:00,36.3,32.5,30.49,NNE,21,0.0,4.0,86,0.00,,---,0.00,VWS V14.01,2013-02-15 04:15:00,
2013-02-14 20:16:00,38.7,33.1,30.48,ENE,78,0.0,0.0,80,0.00,,---,0.00,VWS V14.01,2013-02-15 04:16:00,
2013-02-14 20:21:00,37.7,32.7,30.48,NE,42,0.0,0.0,82,0.00,,---,0.00,VWS V14.01,2013-02-15 04:21:00,
2013-02-14 20:26:00,36.8,32.4,30.48,NNE,30,4.0,7.0,84,0.00,,---,0.00,VWS V14.01,2013-02-15 04:26:00,
2013-02-14 20:30:00,36.4,32.6,30.50,ENE,71,5.0,6.0,86,0.00,,---,0.00,VWS V14.01,2013-02-15 04:30:00,
2013-02-14 20:31:00,36.4,32.3,30.48,NE,38,5.0,5.0,85,0.00,,---,0.00,VWS V14.01,2013-02-15 04:31:00,
2013-02-14 20:36:00,37.6,34.4,30.48,North,9,7.0,7.0,88,0.00,,---,0.00,VWS V14.01,2013-02-15 04:36:00,
2013-02-14 20:41:00,38.8,34.4,30.48,NNE,19,4.0,7.0,84,0.00,,---,0.00,VWS V14.01,2013-02-15 04:41:00,
2013-02-14 20:45:00,36.4,32.6,30.50,NNW,338,5.0,6.0,86,0.00,,---,0.00,VWS V14.01,2013-02-15 04:45:00,
2013-02-14 20:46:00,39.0,34.3,30.48,NNE,15,3.0,4.0,83,0.00,,---,0.00,VWS V14.01,2013-02-15 04:46:00,
2013-02-14 20:51:00,38.4,33.4,30.49,NNE,15,0.0,4.0,82,0.00,,---,0.00,VWS V14.01,2013-02-15 04:51:00,
2013-02-14 20:56:00,37.8,33.1,30.49,NNE,15,0.0,4.0,83,0.00,,---,0.00,VWS V14.01,2013-02-15 04:56:00,
2013-02-14 21:00:00,37.3,32.6,30.49,NNE,15,0.0,4.0,83,0.00,,---,0.00,VWS V14.01,2013-02-15 05:00:00,
2013-02-14 21:05:00,36.6,32.5,30.49,NNE,15,0.0,0.0,85,0.00,,---,0.00,VWS V14.01,2013-02-15 05:05:00,
2013-02-14 21:10:00,36.5,32.7,30.49,NNE,15,0.0,0.0,86,0.00,,---,0.00,VWS V14.01,2013-02-15 05:10:00,
2013-02-14 21:15:00,36.3,32.5,30.49,NNE,22,0.0,4.0,86,0.00,,---,0.00,VWS V14.01,2013-02-15 05:15:00,
2013-02-14 21:20:00,36.0,32.2,30.50,NNE,21,0.0,0.0,86,0.00,,---,0.00,VWS V14.01,2013-02-15 05:20:00,
2013-02-14 21:25:00,36.3,32.8,30.50,NNE,25,3.0,5.0,87,0.00,,---,0.00,VWS V14.01,2013-02-15 05:25:00,
2013-02-14 21:30:00,36.4,32.9,30.50,ENE,64,5.0,5.0,87,0.00,,---,0.00,VWS V14.01,2013-02-15 05:30:00,
2013-02-14 21:35:00,36.2,32.7,30.50,NE,50,3.0,6.0,87,0.00,,---,0.00,VWS V14.01,2013-02-15 05:35:00,
2013-02-14 21:40:00,36.4,32.9,30.50,NNE,22,4.0,6.0,87,0.00,,---,0.00,VWS V14.01,2013-02-15 05:40:00,
2013-02-14 21:45:00,36.4,32.6,30.50,NNW,337,5.0,6.0,86,0.00,,---,0.00,VWS V14.01,2013-02-15 05:45:00,
2013-02-14 21:50:00,35.7,32.2,30.50,NNW,342,4.0,6.0,87,0.00,,---,0.00,VWS V14.01,2013-02-15 05:50:00,
2013-02-14 21:55:00,35.9,32.7,30.50,NNW,343,3.0,6.0,88,0.00,,---,0.00,VWS V14.01,2013-02-15 05:55:00,
2013-02-14 22:00:00,36.4,33.5,30.50,NNW,343,0.0,6.0,89,0.00,,---,0.00,VWS V14.01,2013-02-15 06:00:00,
2013-02-14 22:05:00,36.7,33.5,30.50,NNW,343,0.0,0.0,88,0.00,,---,0.00,VWS V14.01,2013-02-15 06:05:00,
2013-02-14 22:10:00,36.7,33.2,30.50,North,9,0.0,0.0,87,0.00,,---,0.00,VWS V14.01,2013-02-15 06:10:00,
2013-02-14 22:15:00,35.5,31.7,30.50,NE,42,4.0,4.0,86,0.00,,---,0.00,VWS V14.01,2013-02-15 06:15:00,
2013-02-14 22:20:00,34.5,31.3,30.50,NE,42,5.0,6.0,88,0.00,,---,0.00,VWS V14.01,2013-02-15 06:20:00,
2013-02-14 22:25:00,34.7,31.8,30.50,NNE,28,5.0,7.0,89,0.00,,---,0.00,VWS V14.01,2013-02-15 06:25:00,
2013-02-14 22:30:00,34.8,31.9,30.50,NNE,30,4.0,7.0,89,0.00,,---,0.00,VWS V14.01,2013-02-15 06:30:00,
2013-02-14 22:35:00,34.4,31.5,30.50,NE,42,5.0,6.0,89,0.00,,---,0.00,VWS V14.01,2013-02-15 06:35:00,
2013-02-14 22:39:00,34.4,31.5,30.50,NE,45,3.0,6.0,89,0.00,,---,0.00,VWS V14.01,2013-02-15 06:39:00,
2013-02-14 22:44:00,33.9,30.7,30.50,NE,44,0.0,6.0,88,0.00,,---,0.00,VWS V14.01,2013-02-15 06:44:00,
2013-02-14 22:45:00,31.2,29.4,30.51,NNE,33,4.0,5.0,93,0.00,,---,0.00,VWS V14.01,2013-02-15 06:45:00,
2013-02-14 22:49:00,33.3,30.4,30.50,NE,44,0.0,0.0,89,0.00,,---,0.00,VWS V14.01,2013-02-15 06:49:00,
2013-02-14 22:54:00,32.9,30.0,30.50,NE,44,0.0,0.0,89,0.00,,---,0.00,VWS V14.01,2013-02-15 06:54:00,
2013-02-14 22:59:00,32.6,30.0,30.50,NE,44,0.0,0.0,90,0.00,,---,0.00,VWS V14.01,2013-02-15 06:59:00,
2013-02-14 23:00:00,32.4,30.3,30.52,North,351,0.0,7.0,92,0.00,,---,0.00,VWS V14.01,2013-02-15 07:00:00,
2013-02-14 23:04:00,32.4,29.8,30.50,NE,44,0.0,0.0,90,0.00,,---,0.00,VWS V14.01,2013-02-15 07:04:00,
2013-02-14 23:09:00,32.4,30.1,30.50,NE,44,0.0,0.0,91,0.00,,---,0.00,VWS V14.01,2013-02-15 07:09:00,
2013-02-14 23:14:00,31.4,28.3,30.50,NE,42,0.0,2.0,88,0.00,,---,0.00,VWS V14.01,2013-02-15 07:14:00,
2013-02-14 23:15:00,32.2,29.9,30.52,North,355,0.0,1.0,91,0.00,,---,0.00,VWS V14.01,2013-02-15 07:15:00,
2013-02-14 23:19:00,30.2,27.4,30.51,NE,42,0.0,0.0,89,0.00,,---,0.00,VWS V14.01,2013-02-15 07:19:00,
2013-02-14 23:24:00,29.7,27.1,30.51,NE,42,0.0,0.0,90,0.00,,---,0.00,VWS V14.01,2013-02-15 07:24:00,
2013-02-14 23:29:00,29.6,27.3,30.51,NE,41,0.0,0.0,91,0.00,,---,0.00,VWS V14.01,2013-02-15 07:29:00,
2013-02-14 23:30:00,31.4,29.4,30.52,North,355,0.0,0.0,92,0.00,,---,0.00,VWS V14.01,2013-02-15 07:30:00,
2013-02-14 23:34:00,29.9,27.9,30.51,NE,42,0.0,0.0,92,0.00,,---,0.00,VWS V14.01,2013-02-15 07:34:00,
2013-02-14 23:39:00,30.6,28.8,30.51,NE,38,3.0,4.0,93,0.00,,---,0.00,VWS V14.01,2013-02-15 07:39:00,
2013-02-14 23:44:00,31.0,29.2,30.51,NNE,33,3.0,5.0,93,0.00,,---,0.00,VWS V14.01,2013-02-15 07:44:00,
2013-02-14 23:45:00,31.7,29.6,30.52,NNE,14,0.0,3.0,92,0.00,,---,0.00,VWS V14.01,2013-02-15 07:45:00,
2013-02-14 23:49:00,32.4,30.6,30.51,North,360,5.0,7.0,93,0.00,,---,0.00,VWS V14.01,2013-02-15 07:49:00,
2013-02-14 23:54:00,32.7,30.9,30.51,NNW,339,5.0,7.0,93,0.00,,---,0.00,VWS V14.01,2013-02-15 07:54:00,
2013-02-14 23:59:00,32.4,30.3,30.52,North,349,0.0,7.0,92,0.00,,---,0.00,VWS V14.01,2013-02-15 07:59:00,